Location: Newark
(35.6000°N, 117.0333°E)
Time: 08:07:07
(UTC+00:00)

Hubble Space Telescope - Pass Details

Date: 25 August 2019
Orbit: 536 x 540 km, 28.5° (Epoch: 21 September)

Event Time Altitude Azimuth Distance (km) Brightness Sun altitude
Rises 11:15:09 0° 255° (WSW) 2,668 5.4 -5.8°
Reaches altitude 10° 11:19:04 10° 218° (SW) 1,774 3.7 -6.6°
Maximum altitude 11:20:09 11° 202° (SSW) 1,718 3.4 -6.8°
Drops below altitude 10° 11:21:14 10° 187° (S) 1,773 3.3 -7.0°
Enters shadow 11:24:39 - 153° (SSE) 2,508 3.7 -7.7°
